VK2XSE Weather Reports


Display with metric or nautical units.
time (UTC)temp
F
wind
direction
speed
MPH
gust
MPH
rain 1hr
in
rain 24hr
in
rain mn
in
humidity
%
barometer
mb
20260906075017 63 248 1.0 1.0 0.00 0.00 0.00 59 1021.6
20260906074017 64 248 1.0 3.0 0.00 0.00 0.00 58 1021.5
20260906073017 64 0 1.0 2.0 0.00 0.00 0.00 57 1021.3
20260906072017 65 225 2.0 8.0 0.00 0.00 0.00 56 1021.2
20260906071019 65 225 1.0 3.0 0.00 0.00 0.00 55 1021.3
20260906070019 66 248 1.0 4.0 0.00 0.00 0.00 54 1021.1
20260906065019 66 248 1.0 3.0 0.00 0.00 0.00 55 1021.0
20260906064019 66 248 1.0 3.0 0.00 0.00 0.00 54 1021.0
20260906063019 66 248 1.0 3.0 0.00 0.00 0.00 54 1020.9
20260906062019 67 225 2.0 5.0 0.00 0.00 0.00 53 1020.8
20260906061019 67 225 2.0 6.0 0.00 0.00 0.00 54 1020.8
20260906060019 67 180 1.0 4.0 0.00 0.00 0.00 53 1020.8
20260906055017 66 158 1.0 3.0 0.00 0.00 0.00 53 1020.8
20260906054019 66 203 2.0 5.0 0.00 0.00 0.00 54 1020.7
20260906053018 66 180 2.0 6.0 0.00 0.00 0.00 53 1020.7
20260906052019 67 180 4.0 9.0 0.00 0.00 0.00 52 1020.7
20260906051018 67 203 3.0 9.0 0.00 0.00 0.00 52 1020.7
20260906050018 67 248 2.0 3.0 0.00 0.00 0.00 51 1020.8
20260906045018 67 225 2.0 4.0 0.00 0.00 0.00 53 1021.0
20260906044018 67 225 1.0 3.0 0.00 0.00 0.00 53 1020.9
20260906043018 67 248 3.0 5.0 0.00 0.00 0.00 51 1020.9
20260906042018 67 225 2.0 7.0 0.00 0.00 0.00 54 1021.1
20260906041018 67 180 2.0 5.0 0.00 0.00 0.00 53 1021.1
20260906040018 67 0.0 2.0 0.00 0.00 0.00 54 1021.1
20260906035018 67 225 1.0 3.0 0.00 0.00 0.00 56 1021.2
20260906034018 66 203 1.0 3.0 0.00 0.00 0.00 53 1021.2
20260906033018 65 248 2.0 5.0 0.00 0.00 0.00 55 1021.3
20260906032018 65 270 3.0 8.0 0.00 0.00 0.00 55 1021.4
20260906031018 65 135 1.0 3.0 0.00 0.00 0.00 55 1021.5
20260906030018 65 158 2.0 5.0 0.00 0.00 0.00 56 1021.6
20260906025018 65 248 1.0 3.0 0.00 0.00 0.00 58 1021.5
20260906024018 65 225 2.0 7.0 0.00 0.00 0.00 58 1021.6
20260906023018 64 203 2.0 4.0 0.00 0.01 0.00 56 1021.8
20260906022019 64 293 1.0 5.0 0.00 0.02 0.00 60 1021.8
20260906021018 63 225 2.0 8.0 0.00 0.03 0.00 62 1021.9
20260906020018 63 293 2.0 4.0 0.00 0.04 0.00 62 1021.9
20260906015018 62 248 2.0 7.0 0.00 0.06 0.00 63 1021.8
20260906014018 62 248 3.0 7.0 0.00 0.06 0.00 62 1022.0
20260906013018 61 248 2.0 7.0 0.00 0.08 0.00 65 1022.0
20260906012018 61 248 3.0 8.0 0.00 0.09 0.00 67 1022.1
20260906011018 61 270 1.0 3.0 0.00 0.09 0.00 65 1022.2
20260906010018 60 248 4.0 9.0 0.00 0.09 0.00 68 1022.5
20260906005018 59 225 3.0 9.0 0.00 0.09 0.00 70 1022.4
20260906004018 58 248 3.0 8.0 0.00 0.09 0.00 72 1022.5
20260906003018 58 248 2.0 5.0 0.00 0.09 0.00 73 1022.5
20260906002018 57 225 2.0 4.0 0.00 0.09 0.00 74 1022.3
20260906001018 57 225 1.0 5.0 0.00 0.09 0.00 76 1022.3
20260906000018 56 248 3.0 8.0 0.00 0.09 0.00 77 1022.3
20260905235018 55 225 3.0 7.0 0.00 0.09 0.00 79 1022.5
20260905234018 54 0 2.0 5.0 0.00 0.09 0.00 81 1022.3
20260905233018 53 0 2.0 8.0 0.00 0.09 0.00 84 1022.4
20260905232018 52 248 3.0 7.0 0.00 0.09 0.00 84 1022.4
20260905231018 52 0 4.0 8.0 0.00 0.09 0.00 85 1022.3
20260905230028 51 0 3.0 11.0 0.00 0.09 0.00 86 1022.2
20260905225018 51 248 3.0 7.0 0.00 0.09 0.00 88 1022.0
20260905224017 50 248 2.0 6.0 0.00 0.09 0.00 89 1022.2
20260905223018 50 0 1.0 3.0 0.00 0.09 0.00 89 1022.1
20260905222018 49 0 2.0 4.0 0.00 0.09 0.00 90 1022.0
20260905221017 49 0 1.0 3.0 0.00 0.09 0.00 90 1021.9
20260905220017 49 248 3.0 5.0 0.00 0.09 0.00 91 1021.7
20260905215017 49 248 3.0 7.0 0.00 0.09 0.00 91 1021.5
20260905214017 49 248 3.0 7.0 0.00 0.09 0.00 91 1021.3
20260905213017 49 248 2.0 6.0 0.00 0.09 0.00 91 1021.2
20260905212018 49 248 2.0 4.0 0.00 0.09 0.00 91 1021.0
20260905211017 48 248 2.0 4.0 0.00 0.09 0.00 91 1020.8
20260905210017 48 248 2.0 6.0 0.00 0.09 0.00 91 1020.8
20260905205017 48 248 3.0 8.0 0.00 0.09 0.00 91 1020.6
20260905204017 48 248 4.0 7.0 0.00 0.09 0.00 91 1020.5
20260905203017 48 248 3.0 6.0 0.00 0.09 0.00 91 1020.4
20260905202017 48 248 2.0 5.0 0.00 0.09 0.00 91 1020.3
20260905201017 48 248 2.0 5.0 0.00 0.09 0.00 90 1020.1
20260905200017 48 248 2.0 4.0 0.00 0.09 0.00 90 1020.1
20260905195017 48 248 2.0 4.0 0.00 0.09 0.00 90 1020.0
20260905194017 48 248 2.0 4.0 0.00 0.09 0.00 90 1020.0
20260905193017 48 248 3.0 5.0 0.00 0.09 0.00 90 1019.8
20260905192018 48 248 3.0 7.0 0.00 0.09 0.00 90 1019.7
20260905191017 48 248 3.0 9.0 0.00 0.09 0.00 90 1019.6
20260905190017 48 248 3.0 9.0 0.00 0.09 0.00 90 1019.5
20260905185017 48 248 4.0 9.0 0.00 0.09 0.00 90 1019.5
20260905184017 48 248 3.0 7.0 0.00 0.09 0.00 90 1019.3
20260905183017 48 248 3.0 5.0 0.00 0.09 0.00 90 1019.2
20260905182017 48 248 3.0 5.0 0.00 0.09 0.00 89 1019.0
20260905181017 48 248 4.0 7.0 0.00 0.09 0.00 89 1018.7
20260905180017 49 248 4.0 8.0 0.00 0.09 0.00 89 1018.6
20260905175017 49 248 5.0 8.0 0.00 0.09 0.00 88 1018.5
20260905174017 49 248 5.0 10.0 0.00 0.09 0.00 88 1018.4
20260905173017 49 248 4.0 8.0 0.00 0.09 0.00 87 1018.3
20260905172017 50 248 4.0 8.0 0.00 0.09 0.00 86 1018.4
20260905171019 50 248 4.0 7.0 0.00 0.09 0.00 86 1018.4
20260905170019 50 0 4.0 8.0 0.00 0.09 0.00 85 1018.5
20260905165019 50 0 4.0 8.0 0.00 0.09 0.00 85 1018.3
20260905164019 51 0 6.0 10.0 0.00 0.09 0.00 84 1018.4
20260905163019 51 0 5.0 11.0 0.00 0.09 0.00 84 1018.4
20260905162019 51 248 5.0 8.0 0.00 0.09 0.00 83 1018.1
20260905161019 52 248 6.0 12.0 0.00 0.09 0.00 82 1018.0
20260905160019 52 248 5.0 11.0 0.00 0.09 0.00 81 1017.9
20260905155018 53 248 6.0 12.0 0.00 0.09 0.00 80 1017.9
20260905154019 53 248 7.0 13.0 0.00 0.09 0.00 79 1017.9
20260905153018 53 248 7.0 12.0 0.00 0.09 0.00 78 1017.7
20260905152019 53 248 7.0 12.0 0.00 0.09 0.00 78 1017.6
20260905151018 53 248 7.0 13.0 0.00 0.09 0.00 78 1017.6
20260905150018 53 248 7.0 13.0 0.00 0.09 0.00 77 1017.4
20260905145018 53 248 8.0 15.0 0.00 0.09 0.00 77 1017.4
20260905144018 53 248 8.0 13.0 0.00 0.09 0.00 76 1017.2
20260905143018 53 248 7.0 14.0 0.00 0.09 0.00 76 1017.0
20260905142018 53 248 7.0 13.0 0.00 0.09 0.00 75 1016.8
20260905141018 53 248 7.0 11.0 0.00 0.09 0.00 75 1016.8
20260905140021 54 248 7.0 12.0 0.00 0.09 0.09 74 1016.7
20260905135018 54 248 8.0 13.0 0.00 0.09 0.09 73 1016.7
20260905134018 55 248 7.0 14.0 0.00 0.09 0.09 72 1016.7
20260905133018 55 248 9.0 16.0 0.00 0.09 0.09 71 1016.6
20260905132018 55 248 10.0 16.0 0.00 0.09 0.09 71 1016.6
20260905131018 55 248 8.0 16.0 0.00 0.09 0.09 70 1016.4
20260905130018 56 248 8.0 19.0 0.00 0.09 0.09 69 1016.2
20260905125018 56 248 10.0 18.0 0.00 0.09 0.09 68 1016.2
20260905124018 56 248 9.0 16.0 0.00 0.09 0.09 68 1016.0
20260905123018 56 248 8.0 14.0 0.00 0.09 0.09 67 1016.1
20260905122018 57 248 8.0 13.0 0.00 0.09 0.09 67 1016.1
20260905121018 57 248 10.0 19.0 0.00 0.09 0.09 66 1016.1
20260905120018 57 248 9.0 19.0 0.00 0.09 0.09 67 1016.0
20260905115018 57 248 7.0 13.0 0.00 0.09 0.09 69 1015.9
20260905114018 57 248 6.0 13.0 0.00 0.09 0.09 68 1015.7
20260905113018 57 248 7.0 13.0 0.00 0.09 0.09 68 1015.5
20260905112018 57 248 6.0 12.0 0.00 0.09 0.09 68 1015.3
20260905111018 58 248 7.0 14.0 0.00 0.09 0.09 66 1015.1
20260905110018 59 248 8.0 16.0 0.00 0.09 0.09 65 1015.1
20260905105018 59 248 10.0 17.0 0.00 0.09 0.09 64 1015.0
20260905104018 59 248 10.0 18.0 0.00 0.09 0.09 63 1014.8
20260905103018 60 248 8.0 17.0 0.00 0.09 0.09 64 1014.6
20260905102018 60 248 8.0 14.0 0.00 0.09 0.09 63 1014.5
20260905101017 60 248 10.0 16.0 0.00 0.09 0.09 61 1014.1
20260905100018 61 248 7.0 13.0 0.00 0.09 0.09 58 1013.8
20260905095018 61 248 6.0 10.0 0.00 0.09 0.09 58 1013.5
20260905094018 61 248 6.0 11.0 0.00 0.09 0.09 58 1013.3
20260905093018 61 248 8.0 14.0 0.00 0.09 0.09 57 1013.1
20260905092017 62 248 10.0 15.0 0.00 0.09 0.09 57 1012.9
20260905091017 61 248 8.0 16.0 0.00 0.09 0.09 59 1012.7
20260905090017 61 248 6.0 11.0 0.00 0.09 0.09 61 1012.6
20260905085017 62 248 7.0 18.0 0.00 0.09 0.09 60 1012.3
20260905084017 62 248 7.0 12.0 0.00 0.09 0.09 60 1012.2
20260905083018 62 248 6.0 10.0 0.00 0.09 0.09 61 1012.1
20260905082017 62 248 4.0 9.0 0.00 0.09 0.09 62 1011.9
20260905081017 63 248 6.0 10.0 0.00 0.09 0.09 62 1011.6
20260905080018 64 248 5.0 9.0 0.00 0.09 0.09 62 1011.4